Weather History for Chariton, IA

Change the Weather History Date:

Tuesday, February 19, 2013

  Actual Average Record
Temperature  
Mean Temperature 19 °F -  
Max Temperature 26 °F 40 °F 62 °F (1983)
Min Temperature 10 °F 18 °F -21 °F (1978)
Degree Days  
Heating Degree Days 46    
Moisture  
Dew Point 7 °F    
Average Humidity 66    
Maximum Humidity 79    
Minimum Humidity 43    
Precipitation  
Precipitation 0.00 in - - ()
Sea Level Pressure  
Sea Level Pressure 30.15 in    
Wind  
Wind Speed 21 mph (WNW)    
Max Wind Speed 31 mph    
Max Gust Speed 39 mph    
Visibility 10 miles    
Events      
Averages and records for this station are not official NWS values.
T = Trace of Precipitation, MM = Missing Value Source: NWS Daily Summary

Daily Weather History Graph

Daily Weather History Graph

Search for Another Location

Airport:

Trip Planner

Search our weather history database for the weather conditions in past years. The results will help you decide how hot, cold, wet, or windy it might be!

Date:

Astronomy

Feb. 19, 2013 Rise Set
Actual Time 7:02 AM CST 5:53 PM CST
Civil Twilight 6:34 AM CST 6:21 PM CST
Nautical Twilight 6:02 AM CST 6:53 PM CST
Astronomical Twilight 5:30 AM CST 7:24 PM CST
Moon 12:23 PM CST (2/19) 2:35 AM CST (2/19)
Length of Visible Light 11h 47m
Length of Day
10h 51m
Waxing Gibbous, 67% of the Moon is Illuminated
Feb 19
Waxing Gibbous
Feb 25
Full
Mar 4
Last Quarter
Mar 11
New
Mar 19
First Quarter

Hourly Weather History & Observations

Time (CST) Temp. Windchill Dew Point Humidity Pressure Visibility Wind Dir Wind Speed Gust Speed Precip Events Conditions
12:15 AM 17.6 °F 0.1 °F 10.4 °F 73% 29.94 in 10.0 mi West 23.0 mph 32.2 mph N/A   Scattered Clouds
12:35 AM 17.6 °F 0.5 °F 10.4 °F 73% 29.94 in 10.0 mi West 21.9 mph 32.2 mph N/A   Scattered Clouds
12:55 AM 17.6 °F -0.6 °F 10.4 °F 73% 29.95 in 10.0 mi WNW 25.3 mph 29.9 mph N/A   Mostly Cloudy
1:15 AM 17.6 °F 0.9 °F 10.4 °F 73% 29.96 in 10.0 mi WNW 20.7 mph 28.8 mph N/A   Mostly Cloudy
1:35 AM 17.6 °F 0.9 °F 10.4 °F 73% 29.96 in 10.0 mi WNW 20.7 mph 26.5 mph N/A   Overcast
1:55 AM 17.6 °F 0.5 °F 10.4 °F 73% 29.97 in 10.0 mi WNW 21.9 mph 27.6 mph N/A   Mostly Cloudy
2:15 AM 15.8 °F -2.7 °F 8.6 °F 73% 29.98 in 10.0 mi WNW 24.2 mph 34.5 mph N/A   Scattered Clouds
2:35 AM 15.8 °F 0.3 °F 8.6 °F 73% 29.99 in 10.0 mi WNW 16.1 mph 32.2 mph N/A   Scattered Clouds
2:55 AM 14.0 °F -5.1 °F 8.6 °F 79% 29.99 in 10.0 mi WNW 24.2 mph 29.9 mph N/A   Mostly Cloudy
3:15 AM 14.0 °F -3.9 °F 8.6 °F 79% 30.00 in 10.0 mi WNW 20.7 mph 26.5 mph N/A   Overcast
3:35 AM 14.0 °F -2.5 °F 8.6 °F 79% 30.01 in 10.0 mi WNW 17.3 mph 31.1 mph N/A   Overcast
3:55 AM 14.0 °F -4.3 °F 8.6 °F 79% 30.01 in 10.0 mi WNW 21.9 mph 28.8 mph N/A   Overcast
4:15 AM 14.0 °F -5.8 °F 8.6 °F 79% 30.02 in 10.0 mi WNW 26.5 mph 34.5 mph N/A   Overcast
4:35 AM 14.0 °F -3.4 °F 8.6 °F 79% 30.03 in 10.0 mi WNW 19.6 mph 31.1 mph N/A   Overcast
4:55 AM 12.2 °F -7.1 °F 6.8 °F 79% 30.04 in 10.0 mi WNW 23.0 mph 32.2 mph N/A   Overcast
5:15 AM 12.2 °F -5.3 °F 6.8 °F 79% 30.05 in 10.0 mi WNW 18.4 mph 33.4 mph N/A   Overcast
5:55 AM 12.2 °F -7.5 °F 6.8 °F 79% 30.06 in 10.0 mi WNW 24.2 mph 32.2 mph N/A   Overcast
6:15 AM 14.0 °F -5.1 °F 6.8 °F 73% 30.06 in 10.0 mi WNW 24.2 mph 32.2 mph N/A   Overcast
6:35 AM 14.0 °F -5.1 °F 6.8 °F 73% 30.07 in 10.0 mi WNW 24.2 mph 34.5 mph N/A   Overcast
6:55 AM 14.0 °F -6.5 °F 6.8 °F 73% 30.08 in 10.0 mi NW 28.8 mph 36.8 mph N/A   Overcast
7:15 AM 14.0 °F -7.1 °F 6.8 °F 73% 30.09 in 10.0 mi NW 31.1 mph 38.0 mph N/A   Overcast
7:35 AM 12.2 °F -7.5 °F 6.8 °F 79% 30.10 in 10.0 mi WNW 24.2 mph 36.8 mph N/A   Overcast
7:55 AM 12.2 °F -7.5 °F 5.0 °F 73% 30.11 in 10.0 mi NW 24.2 mph 39.1 mph N/A   Overcast
8:15 AM 12.2 °F -8.2 °F 5.0 °F 73% 30.12 in 10.0 mi WNW 26.5 mph 38.0 mph N/A   Overcast
8:35 AM 12.2 °F -9.3 °F 5.0 °F 73% 30.13 in 10.0 mi WNW 29.9 mph 36.8 mph N/A   Overcast
8:55 AM 14.0 °F -4.7 °F 6.8 °F 73% 30.14 in 10.0 mi WNW 23.0 mph 33.4 mph N/A   Overcast
9:35 AM 15.8 °F -2.7 °F 6.8 °F 68% 30.15 in 10.0 mi NW 24.2 mph 31.1 mph N/A   Mostly Cloudy
9:55 AM 15.8 °F -2.3 °F 6.8 °F 68% 30.16 in 10.0 mi WNW 23.0 mph 28.8 mph N/A   Mostly Cloudy
10:15 AM 15.8 °F -1.1 °F 6.8 °F 68% 30.17 in 10.0 mi WNW 19.6 mph 28.8 mph N/A   Overcast
10:35 AM 17.6 °F 0.1 °F 6.8 °F 63% 30.18 in 10.0 mi NW 23.0 mph 29.9 mph N/A   Mostly Cloudy
10:55 AM 17.6 °F 0.1 °F 6.8 °F 63% 30.18 in 10.0 mi West 23.0 mph 27.6 mph N/A   Scattered Clouds
11:15 AM 17.6 °F 0.5 °F 6.8 °F 63% 30.19 in 10.0 mi WNW 21.9 mph 28.8 mph N/A   Mostly Cloudy
11:35 AM 19.4 °F 3.6 °F 8.6 °F 63% 30.19 in 10.0 mi NW 19.6 mph 28.8 mph N/A   Scattered Clouds
11:55 AM 19.4 °F 2.1 °F 8.6 °F 63% 30.19 in 10.0 mi WNW 24.2 mph 31.1 mph N/A   Scattered Clouds
12:15 PM 19.4 °F 4.1 °F 8.6 °F 63% 30.20 in 10.0 mi WNW 18.4 mph 31.1 mph N/A   Scattered Clouds
12:35 PM 21.2 °F 4.5 °F 8.6 °F 58% 30.19 in 10.0 mi WNW 24.2 mph 31.1 mph N/A   Clear
12:55 PM 21.2 °F 5.2 °F 8.6 °F 58% 30.20 in 10.0 mi WNW 21.9 mph 32.2 mph N/A   Clear
1:15 PM 23.0 °F 7.2 °F 8.6 °F 54% 30.19 in 10.0 mi NW 23.0 mph 28.8 mph N/A   Clear
1:35 PM 24.8 °F 9.3 °F 8.6 °F 50% 30.19 in 10.0 mi WNW 24.2 mph 31.1 mph N/A   Clear
1:55 PM 24.8 °F 8.7 °F 8.6 °F 50% 30.19 in 10.0 mi WNW 26.5 mph 29.9 mph N/A   Clear
2:15 PM 24.8 °F 9.6 °F 8.6 °F 50% 30.19 in 10.0 mi WNW 23.0 mph 31.1 mph N/A   Clear
2:35 PM 24.8 °F 8.4 °F 8.6 °F 50% 30.19 in 10.0 mi NW 27.6 mph 33.4 mph N/A   Clear
2:55 PM 26.6 °F 13.4 °F 8.6 °F 47% 30.20 in 10.0 mi WNW 18.4 mph 28.8 mph N/A   Clear
3:15 PM 26.6 °F 12.4 °F 6.8 °F 43% 30.20 in 10.0 mi WNW 21.9 mph 32.2 mph N/A   Clear
3:35 PM 24.8 °F 11.1 °F 6.8 °F 46% 30.21 in 10.0 mi NW 18.4 mph 33.4 mph N/A   Clear
3:55 PM 24.8 °F 9.3 °F 5.0 °F 43% 30.22 in 10.0 mi WNW 24.2 mph 31.1 mph N/A   Clear
4:15 PM 24.8 °F 10.3 °F 6.8 °F 46% 30.23 in 10.0 mi NW 20.7 mph 24.2 mph N/A   Clear
4:35 PM 24.8 °F 9.6 °F 6.8 °F 46% 30.22 in 10.0 mi NW 23.0 mph 27.6 mph N/A   Clear
4:55 PM 24.8 °F 9.3 °F 6.8 °F 46% 30.22 in 10.0 mi NW 24.2 mph 29.9 mph N/A   Clear
5:15 PM 23.0 °F 9.6 °F 5.0 °F 46% 30.23 in 10.0 mi NW 16.1 mph 27.6 mph N/A   Clear
6:35 PM 19.4 °F 7.9 °F 6.8 °F 58% 30.24 in 10.0 mi NW 10.4 mph - N/A   Clear
6:55 PM 19.4 °F 6.0 °F 6.8 °F 58% 30.25 in 10.0 mi NW 13.8 mph 18.4 mph N/A   Clear
7:15 PM 17.6 °F 4.3 °F 6.8 °F 63% 30.26 in 10.0 mi NW 12.7 mph 19.6 mph N/A   Clear
7:35 PM 17.6 °F 5.0 °F 6.8 °F 63% 30.26 in 10.0 mi NW 11.5 mph 18.4 mph N/A   Clear
7:55 PM 17.6 °F 5.0 °F 6.8 °F 63% 30.27 in 10.0 mi NW 11.5 mph - N/A   Clear
8:15 PM 17.6 °F 5.0 °F 6.8 °F 63% 30.26 in 10.0 mi NW 11.5 mph - N/A   Clear
8:35 PM 15.8 °F 5.1 °F 6.8 °F 68% 30.27 in 10.0 mi WNW 8.1 mph - N/A   Clear
8:55 PM 15.8 °F 4.2 °F 5.0 °F 62% 30.28 in 10.0 mi WNW 9.2 mph - N/A   Clear
9:15 PM 15.8 °F 4.2 °F 6.8 °F 68% 30.28 in 10.0 mi WNW 9.2 mph - N/A   Clear
9:35 PM 14.0 °F 2.9 °F 6.8 °F 73% 30.28 in 10.0 mi WNW 8.1 mph - N/A   Clear
9:55 PM 14.0 °F 2.0 °F 6.8 °F 73% 30.29 in 10.0 mi WNW 9.2 mph - N/A   Clear
10:15 PM 14.0 °F 0.5 °F 6.8 °F 73% 30.30 in 10.0 mi NW 11.5 mph - N/A   Clear
10:35 PM 14.0 °F -0.2 °F 6.8 °F 73% 30.31 in 10.0 mi NW 12.7 mph - N/A   Clear
10:55 PM 12.2 °F -2.5 °F 5.0 °F 73% 30.32 in 10.0 mi NW 12.7 mph - N/A   Clear
11:15 PM 12.2 °F -1.0 °F 5.0 °F 73% 30.33 in 10.0 mi NW 10.4 mph 16.1 mph N/A   Clear
11:35 PM 12.2 °F -3.1 °F 3.2 °F 67% 30.33 in 10.0 mi NW 13.8 mph 18.4 mph N/A   Clear
11:55 PM 10.4 °F -4.1 °F 3.2 °F 73% 30.34 in 10.0 mi NW 11.5 mph - N/A   Clear